Location: ???????
(54.6339°N, 39.4245°E)
Time: 07:02:10
(UTC+00:00)

Exosat Rocket - Pass Details

Date: 19 May 2025
Orbit: 761 x 2512 km, 72.3° (Epoch: 16 June)

Event Time Altitude Azimuth Distance (km) Brightness Sun altitude
Rises 21:09:32 0° 327° (NNW) 3,400 7.9 -15.4°
Reaches altitude 10° 21:12:05 10° 322° (NW) 2,371 6.8 -15.4°
Maximum altitude 21:16:58 46° 249° (WSW) 1,018 4.0 -15.4°
Enters shadow 21:19:38 24° 189° (S) 1,555 4.5 -15.4°
